Regional Weather Roundup
Issued by NWS

Home | Current Version | Previous Version | Text Only | Print | Product List | Glossary On
Versions: 1 2 3 4 5 6 7 8 9 10 11 12 13 14 15 16 17 18 19 20 21 22 23 24 25 26 27 28 29 30 31 32 33 34 35 36 37 38 39 40 41 42 43 44 45 46 47 48 49 50
592
ASUS43 KLSX 212057
RWRMO

WEATHER SUMMARY FOR MISSOURI
NATIONAL WEATHER SERVICE SPRINGFIELD MO
400 PM CDT MON AUG 21 2017

NOTE: "FAIR" INDICATES FEW OR NO CLOUDS BELOW 12,000 FEET WITH NO
       SIGNIFICANT WEATHER AND/OR OBSTRUCTIONS TO VISIBILITY.
       CURRENT SKY AND/OR WEATHER CONDITIONS ARE NOT AVAILABLE FOR
       CHILLICOTHE AND FARMINGTON.

MOZ001>031-035>038-043-044-053-054-212200-
...NORTHERN AND WESTERN MISSOURI...

CITY           SKY/WX    TMP DP  RH WIND       PRES   REMARKS
KANSAS CTY INT CLOUDY    75  72  90 S12       30.00F
KANSAS C DTWN  TSTM      73  72  94 E13       29.99F
LEE`S SUMMIT   CLOUDY    75  72  90 NE9       30.04R
ST JOSEPH      CLOUDY    82  74  76 SE15      29.97S
CHILLICOTHE      N/A     75  74  96 S9        30.03F

$$
MOZ066>068-077>081-088>096-101>105-212200-
...SOUTHWEST MISSOURI...

CITY           SKY/WX    TMP DP  RH WIND       PRES   REMARKS
SPRINGFIELD    MOSUNNY   88  75  65 S12       30.06F HX  97
JOPLIN         SUNNY     91  75  59 SW15      30.04F HX 101
BRANSON        MOSUNNY   90  72  55 SW5       30.10F HX  96

$$
MOZ032>034-039>042-045>050-055>058-069>072-212200-
...CENTRAL MISSOURI...

CITY           SKY/WX    TMP DP  RH WIND       PRES   REMARKS
COLUMBIA       NOT AVBL
JEFFERSON CITY MOSUNNY   90  74  59 S10       30.00F HX  99
ROLLA          MOSUNNY   90  73  57 SW12      30.06F HX  98
SEDALIA        MOSUNNY   90  78  68 SW9       30.04F HX 104
WARRENSBURG    PTSUNNY   84  73  70 S8        30.02S HX  91

$$
MOZ051-052-059>065-212200-
...EAST CENTRAL MISSOURI...

CITY           SKY/WX    TMP DP  RH WIND       PRES   REMARKS
ST LOUIS INTL  CLOUDY    87  71  58 VRB6G25   30.04S THUNDER HX  93
ST CHARLES     CLOUDY    84  70  61 S6        30.03F

$$
MOZ072>076-082>087-097>100-106>115-212200-
...SOUTH CENTRAL AND SOUTHEAST MISSOURI...

CITY           SKY/WX    TMP DP  RH WIND       PRES   REMARKS
CAPE GIRARDEAU NOT AVBL
POPLAR BLUFF   SUNNY     91  79  67 SW8       30.05F HX 107
WEST PLAINS    MOSUNNY   88  70  55 S9        30.11F HX  93

$$



USA.gov is the U.S. government's official web portal to all federal, state and local government web resources and services.